• en France
  • Liste des pays
  • À 7 jours
  • Température de l'eau
  • Carte satellitaire
  • Carte météo
  • Widgets météo
  • user-avatar
    Se connecter

    Météo par heure à Szombathely

    Ce jour, 18 Juillet, Mercredi

    Heure Température Précipitation Vent Pression Humidité
    00:00 +19°C° 0,1 mm 2 m/s 740 mmHg 74%
    01:00 +18°C° 0 mm 3 m/s 740 mmHg 80%
    02:00 +18°C° 0,1 mm 3 m/s 740 mmHg 81%
    03:00 +18°C° 0,1 mm 3 m/s 740 mmHg 81%
    04:00 +18°C° 0,1 mm 3 m/s 739 mmHg 81%
    05:00 +19°C° 0 mm 3 m/s 740 mmHg 76%
    06:00 +20°C° 0 mm 4 m/s 740 mmHg 71%
    07:00 +22°C° 0 mm 4 m/s 740 mmHg 66%
    08:00 +23°C° 0 mm 5 m/s 740 mmHg 58%
    09:00 +26°C° 0 mm 6 m/s 740 mmHg 50%
    10:00 +28°C° 0 mm 7 m/s 740 mmHg 43%
    11:00 +29°C° 0 mm 7 m/s 740 mmHg 41%
    12:00 +29°C° 0 mm 8 m/s 741 mmHg 40%
    13:00 +31°C° 0 mm 8 m/s 741 mmHg 39%
    14:00 +29°C° 0 mm 7 m/s 741 mmHg 43%
    15:00 +27°C° 0 mm 7 m/s 741 mmHg 48%
    16:00 +26°C° 0 mm 6 m/s 741 mmHg 52%
    17:00 +24°C° 0 mm 6 m/s 741 mmHg 56%
    18:00 +23°C° 0 mm 5 m/s 741 mmHg 60%
    19:00 +23°C° 0 mm 4 m/s 741 mmHg 64%
    20:00 +22°C° 0 mm 4 m/s 741 mmHg 65%
    21:00 +22°C° 0 mm 4 m/s 741 mmHg 65%
    22:00 +21°C° 0 mm 4 m/s 741 mmHg 66%
    23:00 +21°C° 0 mm 4 m/s 741 mmHg 66%

    Demain, 19 Juillet, Jeudi

    Heure Température Précipitation Vent Pression Humidité
    00:00 +21°C° 0 mm 4 m/s 741 mmHg 66%
    01:00 +21°C° 0 mm 4 m/s 741 mmHg 66%
    02:00 +20°C° 0 mm 4 m/s 741 mmHg 65%
    03:00 +20°C° 0 mm 4 m/s 741 mmHg 65%
    04:00 +20°C° 0 mm 5 m/s 741 mmHg 65%
    05:00 +21°C° 0 mm 5 m/s 742 mmHg 63%
    06:00 +22°C° 0 mm 5 m/s 742 mmHg 61%
    07:00 +22°C° 0 mm 6 m/s 742 mmHg 60%
    08:00 +24°C° 0 mm 6 m/s 742 mmHg 54%
    09:00 +26°C° 0 mm 6 m/s 742 mmHg 49%
    10:00 +28°C° 0 mm 7 m/s 742 mmHg 44%
    11:00 +28°C° 0 mm 6 m/s 742 mmHg 42%
    12:00 +29°C° 0 mm 6 m/s 742 mmHg 39%
    13:00 +30°C° 0 mm 6 m/s 742 mmHg 37%
    14:00 +30°C° 0 mm 6 m/s 742 mmHg 38%
    15:00 +30°C° 0 mm 6 m/s 742 mmHg 38%
    16:00 +30°C° 0 mm 6 m/s 742 mmHg 39%
    17:00 +28°C° 0 mm 5 m/s 742 mmHg 45%
    18:00 +27°C° 0 mm 4 m/s 742 mmHg 51%
    19:00 +25°C° 0 mm 4 m/s 742 mmHg 57%
    20:00 +24°C° 0 mm 3 m/s 742 mmHg 62%
    21:00 +22°C° 0 mm 3 m/s 742 mmHg 66%
    22:00 +20°C° 0 mm 2 m/s 743 mmHg 71%
    23:00 +20°C° 0 mm 2 m/s 743 mmHg 72%

    Après-demain, 20 Juillet, Vendredi

    Heure Température Précipitation Vent Pression Humidité
    00:00 +19°C° 0 mm 2 m/s 743 mmHg 73%
    01:00 +19°C° 0 mm 3 m/s 743 mmHg 74%
    02:00 +18°C° 0 mm 3 m/s 743 mmHg 75%
    03:00 +18°C° 0 mm 2 m/s 742 mmHg 76%
    04:00 +17°C° 0 mm 2 m/s 742 mmHg 77%
    05:00 +19°C° 0 mm 3 m/s 743 mmHg 72%
    06:00 +20°C° 0 mm 3 m/s 743 mmHg 66%
    07:00 +22°C° 0 mm 3 m/s 743 mmHg 61%
    08:00 +25°C° 0 mm 3 m/s 743 mmHg 54%
    09:00 +27°C° 0 mm 3 m/s 743 mmHg 47%
    10:00 +29°C° 0 mm 3 m/s 743 mmHg 41%
    11:00 +30°C° 0 mm 3 m/s 742 mmHg 38%
    12:00 +31°C° 0 mm 3 m/s 742 mmHg 35%
    13:00 +33°C° 0 mm 3 m/s 742 mmHg 32%
    14:00 +33°C° 0 mm 3 m/s 741 mmHg 33%
    15:00 +32°C° 0 mm 2 m/s 741 mmHg 33%
    16:00 +31°C° 0 mm 2 m/s 741 mmHg 33%
    17:00 +30°C° 0 mm 2 m/s 740 mmHg 40%
    18:00 +28°C° 0 mm 2 m/s 740 mmHg 47%
    19:00 +26°C° 0 mm 1 m/s 740 mmHg 53%
    20:00 +25°C° 0 mm 1 m/s 740 mmHg 58%
    21:00 +23°C° 0 mm 1 m/s 740 mmHg 62%
    22:00 +22°C° 0 mm 1 m/s 741 mmHg 67%
    23:00 +21°C° 0 mm 1 m/s 740 mmHg 70%

    21 Juillet, Samedi

    Heure Température Précipitation Vent Pression Humidité
    00:00 +21°C° 0 mm 1 m/s 740 mmHg 73%
    01:00 +20°C° 0 mm 1 m/s 740 mmHg 75%
    02:00 +20°C° 0 mm 1 m/s 740 mmHg 77%
    03:00 +20°C° 0 mm 1 m/s 739 mmHg 79%
    04:00 +19°C° 0 mm 1 m/s 739 mmHg 81%
    05:00 +21°C° 0 mm 1 m/s 739 mmHg 76%
    06:00 +23°C° 0 mm 1 m/s 739 mmHg 71%
    07:00 +24°C° 0 mm 1 m/s 739 mmHg 67%
    08:00 +26°C° 0 mm 2 m/s 739 mmHg 61%
    09:00 +28°C° 0 mm 2 m/s 739 mmHg 55%
    10:00 +30°C° 0 mm 2 m/s 739 mmHg 49%
    11:00 +31°C° 0,1 mm 2 m/s 739 mmHg 47%
    12:00 +32°C° 0,1 mm 2 m/s 738 mmHg 45%
    13:00 +34°C° 0,1 mm 3 m/s 738 mmHg 43%
    14:00 +33°C° 0,5 mm 3 m/s 738 mmHg 45%
    15:00 +32°C° 0,5 mm 2 m/s 738 mmHg 48%
    16:00 +31°C° 0,5 mm 2 m/s 737 mmHg 51%
    17:00 +29°C° 1,2 mm 2 m/s 737 mmHg 57%
    18:00 +28°C° 1,2 mm 2 m/s 737 mmHg 64%
    19:00 +26°C° 1,2 mm 2 m/s 737 mmHg 70%
    20:00 +24°C° 2,3 mm 3 m/s 737 mmHg 77%
    21:00 +22°C° 2,3 mm 3 m/s 738 mmHg 83%
    22:00 +20°C° 2,3 mm 4 m/s 738 mmHg 89%
    23:00 +20°C° 0,6 mm 3 m/s 738 mmHg 90%

    22 Juillet, Dimanche

    Heure Température Précipitation Vent Pression Humidité
    00:00 +19°C° 0,6 mm 3 m/s 738 mmHg 90%
    01:00 +19°C° 0,6 mm 3 m/s 738 mmHg 90%
    02:00 +19°C° 0,5 mm 2 m/s 738 mmHg 91%
    03:00 +18°C° 0,5 mm 2 m/s 738 mmHg 91%
    04:00 +18°C° 0,5 mm 2 m/s 738 mmHg 92%
    05:00 +19°C° 0,1 mm 2 m/s 738 mmHg 89%
    06:00 +20°C° 0,1 mm 2 m/s 738 mmHg 87%
    07:00 +21°C° 0,1 mm 2 m/s 738 mmHg 84%
    08:00 +23°C° 0,5 mm 2 m/s 738 mmHg 80%
    09:00 +24°C° 0,5 mm 3 m/s 738 mmHg 75%
    10:00 +25°C° 0,5 mm 3 m/s 738 mmHg 70%
    11:00 +25°C° 1,2 mm 3 m/s 737 mmHg 71%
    12:00 +26°C° 1,2 mm 3 m/s 737 mmHg 71%
    13:00 +26°C° 1,2 mm 3 m/s 737 mmHg 72%
    14:00 +26°C° 1,5 mm 3 m/s 737 mmHg 72%
    15:00 +26°C° 1,5 mm 3 m/s 737 mmHg 72%
    16:00 +26°C° 1,5 mm 3 m/s 737 mmHg 72%
    17:00 +25°C° 0,8 mm 4 m/s 737 mmHg 75%
    18:00 +23°C° 0,8 mm 4 m/s 737 mmHg 78%
    19:00 +22°C° 0,8 mm 5 m/s 737 mmHg 81%
    20:00 +21°C° 0,2 mm 5 m/s 737 mmHg 82%
    21:00 +20°C° 0,2 mm 5 m/s 737 mmHg 82%
    22:00 +20°C° 0,2 mm 5 m/s 738 mmHg 83%
    23:00 +20°C° 0,2 mm 5 m/s 738 mmHg 82%

    23 Juillet, Lundi

    Heure Température Précipitation Vent Pression Humidité
    00:00 +20°C° 0,2 mm 6 m/s 738 mmHg 82%
    01:00 +20°C° 0,2 mm 6 m/s 738 mmHg 81%
    02:00 +20°C° 0,5 mm 6 m/s 738 mmHg 81%
    03:00 +19°C° 0,5 mm 6 m/s 738 mmHg 82%
    04:00 +19°C° 0,5 mm 6 m/s 739 mmHg 82%
    05:00 +20°C° 0,2 mm 6 m/s 739 mmHg 80%
    06:00 +20°C° 0,2 mm 6 m/s 739 mmHg 79%
    07:00 +20°C° 0,2 mm 6 m/s 740 mmHg 77%
    08:00 +22°C° 0 mm 6 m/s 740 mmHg 71%
    09:00 +23°C° 0 mm 7 m/s 740 mmHg 65%
    10:00 +26°C° 0 mm 7 m/s 740 mmHg 59%
    11:00 +27°C° 0,1 mm 7 m/s 740 mmHg 56%
    12:00 +28°C° 0,1 mm 7 m/s 740 mmHg 52%
    13:00 +29°C° 0,1 mm 7 m/s 740 mmHg 49%
    14:00 +29°C° 0,1 mm 7 m/s 740 mmHg 49%
    15:00 +29°C° 0,1 mm 7 m/s 740 mmHg 49%
    16:00 +29°C° 0,1 mm 6 m/s 740 mmHg 49%
    17:00 +28°C° 0 mm 6 m/s 740 mmHg 54%
    18:00 +26°C° 0 mm 5 m/s 740 mmHg 58%
    19:00 +25°C° 0 mm 4 m/s 740 mmHg 63%
    20:00 +23°C° 0 mm 4 m/s 741 mmHg 66%
    21:00 +22°C° 0 mm 4 m/s 741 mmHg 69%
    22:00 +21°C° 0 mm 4 m/s 741 mmHg 72%
    23:00 +21°C° 0 mm 4 m/s 741 mmHg 74%
    Voir plus